Regional Weather Roundup
Issued by NWS Albany, NY

Home | Current Version | Previous Version | Text Only | Print | Product List | Glossary On
Versions: 1 2 3 4 5 6 7 8 9 10 11 12 13 14 15 16 17 18 19 20 21 22 23 24 25 26 27 28
000
ASUS41 KALY 290510
RWRALY

NEW YORK STATE HOURLY WEATHER ROUNDUP
NATIONAL WEATHER SERVICE ALBANY NY
100 AM EDT FRI APR 29 2016

NOTE: "FAIR" INDICATES FEW OR NO CLOUDS BELOW 12,000 FEET WITH NO
SIGNIFICANT WEATHER AND/OR NO OBSTRUCTIONS TO VISIBILITY.

NYZ032-033-038>043-046>054-057>066-NYZ062>081-082-084-290600-
EAST


CITY           SKY/WX    TMP DP  RH WIND       PRES   REMARKS
ALBANY         MOCLDY    40  18  41 N14       30.09R WCI  32
GLENS FALLS    PTCLDY    39  18  42 N8        30.12R WCI  33
POUGHKEEPSIE   CLOUDY    50  41  71 CALM      30.04S
NEWBURGH       CLOUDY    48  41  76 CALM      30.05S
MONTGOMERY     CLOUDY    48  41  76 CALM      30.04S
WHITE PLAINS   CLOUDY    45  39  79 CALM      30.05S
ISLIP          CLOUDY    48  37  65 E3        30.06S
NEW YORK CITY  CLOUDY    49  38  65 CALM      30.06R
CENTRAL PARK   CLOUDY    49  38  65 CALM      30.08R
$$

NYZ005>009-017-018-044>046-055-056-290600-
CENTRAL


CITY           SKY/WX    TMP DP  RH WIND       PRES   REMARKS
FULTON         PTCLDY    41  22  46 CALM      30.06S
SYRACUSE       CLOUDY    42  27  55 N3        30.04S
ROME           PTCLDY    42  26  53 NE3       30.07R
ELMIRA         CLOUDY    43  33  68 E7        30.03F
BINGHAMTON     CLOUDY    44  31  60 CALM      30.01S
MONTICELLO     CLOUDY    46  37  71 S3        30.03S
$$

NYZ026>034-041>043-087-290600-
NORTH


CITY           SKY/WX    TMP DP  RH WIND       PRES   REMARKS
WATERTOWN      CLOUDY    37  20  50 NE10      30.09S WCI  30
FORT DRUM      NOT AVBL
MASSENA        PTCLDY    33  18  53 E6        30.16S WCI  28
SARANAC LAKE   CLOUDY    28  16  60 NE7       30.08S WCI  21
PLATTSBURGH    PTCLDY    29  19  66 CALM      30.17S
$$

NYZ001>004-010>016-019>021-085-290600-
WEST


CITY           SKY/WX    TMP DP  RH WIND       PRES   REMARKS
NIAGARA FALLS  CLOUDY    42  26  53 E9        30.04F
BUFFALO        CLOUDY    43  25  49 E10       30.04S
DUNKIRK        CLOUDY    44  33  65 E10       30.01F
JAMESTOWN      CLOUDY    41  36  81 E7        29.98S
WELLSVILLE     CLOUDY    39  34  82 E8        30.01S WCI  33
ROCHESTER      MOCLDY    44  23  43 NE13      30.07S
PENN YAN       CLOUDY    43  28  55 CALM      30.04F
$$

             KEY
       WCI = WIND CHILL INDEX
       VSB = VISIBILITY
       HX  = HEAT INDEX
$$




USA.gov is the U.S. government's official web portal to all federal, state and local government web resources and services.